Regional Weather Roundup
Issued by NWS Northern Indiana

Home | Current Version | Previous Version | Graphics & Text | Print | Product List | Glossary On
Versions: 1 2 3 4 5 6 7 8 9 10 11 12 13 14 15 16 17 18 19 20 21 22 23 24 25 26 27 28 29 30 31 32 33 34 35 36 37 38 39 40 41 42 43 44 45 46 47 48 49 50
518
ASUS43 KIWX 202100
RWRIWX

KIWX WEATHER ROUNDUP
NATIONAL WEATHER SERVICE NORTHERN INDIANA
500 PM EDT THU JUL 20 2017

NOTE: "FAIR" INDICATES FEW OR NO CLOUDS BELOW 12,000 FEET WITH NO
SIGNIFICANT WEATHER AND/OR OBSTRUCTIONS TO VISIBILITY.

* THESE STATIONS ARE NOT UNDER NWS QUALITY CONTROL. THEY ALSO MAY NOT
  REPORT WEATHER SUCH AS PRECIPITATION OR FOG.

INZ001>027-202200-
NORTHERN INDIANA

CITY           SKY/WX    TMP DP  RH WIND       PRES   REMARKS
GARY*          PTSUNNY   90  72  55 W14       29.96R HX  96
MICHIGAN CITY* CLOUDY    79  72  78 N6        29.98R
KNOX*            N/A    N/A N/A N/A MISG        N/A
SOUTH BEND     CLOUDY    84  73  69 NW10      29.98R
ELKHART*       PTSUNNY   84  72  65 MISG      29.98S
GOSHEN         CLOUDY    85  71  63 W8        29.97
MONTICELLO*    SUNNY     87  76  70 SW10G21   29.96S HX  97
LOGANSPORT*    CLOUDY    88  72  58 W15       29.97F
WARSAW*        PTSUNNY   84  73  70 W6        29.99S
FORT WAYNE     PTSUNNY   87  72  60 NW6       29.99S
PERU/GRISSOM   MOSUNNY   88  74  62 W15       29.96F HX  96

$$
INZ028>050-202200-
CENTRAL INDIANA

CITY           SKY/WX    TMP DP  RH WIND       PRES   REMARKS
LAFAYETTE      MOSUNNY   86  76  71 SW10      29.97S HX  96
KOKOMO*        MOSUNNY   88  73  61 W17       29.99S HX  95
MUNCIE*        CLOUDY    89  72  56 W9        30.00S HX  96
INDIANAPOLIS   CLOUDY    89  76  65 SW14G22   29.99F HX 100

$$
MIZ043>046-050>051-056>058-064>065-071>073-077>080-202200-
SOUTHWEST LOWER MICHIGAN

CITY           SKY/WX    TMP DP  RH WIND       PRES   REMARKS
BATTLE CREEK   MOSUNNY   84  71  65 W8        29.97F
BENTON HARBOR  SUNNY     82  69  64 NW6       29.98S
COLDWATER*     PTSUNNY   83  71  69 W5        29.98S
HILLSDALE*     CLOUDY    82  70  65 SW5       29.98F
HOLLAND        SUNNY     81  69  67 W8        29.97F
GRAND RAPIDS   PTSUNNY   83  70  64 W7        29.95F
KALAMAZOO      MOSUNNY   86  68  54 W12       29.96F
STURGIS*       CLOUDY    83  73  71 W8        29.97F
THREE RIVERS*  PTSUNNY   85  72  64 NW7       29.97S

$$
OHZ001>008-015>018-024>025-202200-
NORTHWEST OHIO

CITY           SKY/WX    TMP DP  RH WIND       PRES   REMARKS
DEFIANCE       PTSUNNY  N/A N/A N/A SW6       29.98F
FINDLAY        CLOUDY    87  68  52 W9        29.98F
TOLEDO EXPRESS MOSUNNY   86  72  62 NW6       29.96F
TOLEDO METCALF MOSUNNY   86  71  60 NE6       29.97F
LIMA           MOSUNNY   83  71  67 SW7       30.01F

$$
AND FOR LAKE MICHIGAN COASTAL AND OPEN LAKE BUOY OBSERVATIONS

STATION/POSITION TEMP    WIND        PRES    VSBY  WAVE
                 AIR SEA DIR/SP/G                  HT/PER
                 (F)     (DEG/KT/KT) (MB)    (MI)  (FT/S)
CALUMET HARBOR    77      10/  7/ 11 1014.0R
MICHIGAN CITY     74      50/ 13/ 13   N/A
BURNS HARBOR      78     360/  8/ 10 1014.9R
SAINT JOSEPH      78     320/  2/  3 1016.3
SOUTH LAKE BUOY   71 71  110/  6/  6 1014.6          2/ 5
4 MI NW BRIDGMAN  75 75   40/  6/  6 1014.6F         1/ 4
MICHIGAN CITY     75 75   60/  8/ 12   N/A           1/ 2

$$
&&




USA.gov is the U.S. government's official web portal to all federal, state and local government web resources and services.